When you browse on this site, cookies collect data to enhance your experience and personalize the content and advertising you see.
Visit our Privacy Policy to learn more. By continuing to use the site, you agree to this use of cookies and data.
  • în România
  • Lista ţărilor
  • Pe 7 zile
  • Temperatura apei
  • Hartă satelitară
  • Meteo pe hartă
  • Widget-uri
  • user-avatar
    Intrare

    Meteo pe oră la Lisburn

    Astăzi, 18 Ianuarie, Vineri

    Timp Temperatura Precipitaţii Vânt Presiune Umiditate
    00:00 +1°C° 0 mm 4 m/s 757 mmHg 71%
    01:00 +1°C° 0 mm 4 m/s 756 mmHg 72%
    02:00 +1°C° 0 mm 5 m/s 755 mmHg 72%
    03:00 +1°C° 0 mm 5 m/s 754 mmHg 73%
    04:00 +2°C° 0.3 mm 5 m/s 754 mmHg 76%
    05:00 +2°C° 0.3 mm 6 m/s 753 mmHg 79%
    06:00 +2°C° 0 mm 6 m/s 752 mmHg 82%
    07:00 +2°C° 0.7 mm 7 m/s 752 mmHg 84%
    08:00 +3°C° 0.7 mm 7 m/s 751 mmHg 87%
    09:00 +2°C° 0.7 mm 8 m/s 751 mmHg 89%
    10:00 +2°C° 1 mm 8 m/s 751 mmHg 90%
    11:00 +4°C° 1 mm 7 m/s 750 mmHg 91%
    12:00 +4°C° 1 mm 7 m/s 750 mmHg 92%
    13:00 +4°C° 1 mm 6 m/s 750 mmHg 93%
    14:00 +6°C° 1 mm 5 m/s 749 mmHg 94%
    15:00 +6°C° 1 mm 4 m/s 749 mmHg 94%
    16:00 +5°C° 0.2 mm 4 m/s 749 mmHg 95%
    17:00 +5°C° 0.2 mm 3 m/s 749 mmHg 95%
    18:00 +5°C° 0.2 mm 2 m/s 748 mmHg 95%
    19:00 +5°C° 0 mm 2 m/s 748 mmHg 95%
    20:00 +4°C° 0 mm 2 m/s 748 mmHg 96%
    21:00 +4°C° 0 mm 1 m/s 748 mmHg 96%
    22:00 +5°C° 0 mm 1 m/s 748 mmHg 95%
    23:00 +5°C° 0 mm 1 m/s 748 mmHg 95%

    Mâine, 19 Ianuarie, Sâmbătă

    Timp Temperatura Precipitaţii Vânt Presiune Umiditate
    00:00 +4°C° 0 mm 2 m/s 748 mmHg 94%
    01:00 +4°C° 0 mm 2 m/s 748 mmHg 95%
    02:00 +4°C° 0 mm 2 m/s 748 mmHg 95%
    03:00 +5°C° 0 mm 2 m/s 748 mmHg 95%
    04:00 +5°C° 0.3 mm 2 m/s 748 mmHg 95%
    05:00 +5°C° 0.3 mm 2 m/s 748 mmHg 96%
    06:00 +6°C° 0.3 mm 2 m/s 748 mmHg 96%
    07:00 +6°C° 0.8 mm 2 m/s 749 mmHg 96%
    08:00 +6°C° 0.8 mm 2 m/s 749 mmHg 96%
    09:00 +6°C° 0.8 mm 2 m/s 749 mmHg 96%
    10:00 +7°C° 0.6 mm 2 m/s 750 mmHg 96%
    11:00 +7°C° 0.6 mm 3 m/s 750 mmHg 95%
    12:00 +7°C° 0.6 mm 3 m/s 750 mmHg 95%
    13:00 +7°C° 0.2 mm 2 m/s 750 mmHg 95%
    14:00 +7°C° 0.2 mm 2 m/s 750 mmHg 95%
    15:00 +7°C° 0.2 mm 2 m/s 751 mmHg 95%
    16:00 +7°C° 0.1 mm 2 m/s 751 mmHg 95%
    17:00 +7°C° 0.1 mm 2 m/s 752 mmHg 95%
    18:00 +6°C° 0.1 mm 2 m/s 752 mmHg 96%
    19:00 +6°C° 0.1 mm 2 m/s 752 mmHg 96%
    20:00 +7°C° 0.1 mm 1 m/s 753 mmHg 96%
    21:00 +7°C° 0.1 mm 1 m/s 753 mmHg 96%
    22:00 +7°C° 0.1 mm 1 m/s 753 mmHg 96%
    23:00 +7°C° 0.1 mm 1 m/s 754 mmHg 96%

    Poimâine, 20 Ianuarie, Duminică

    Timp Temperatura Precipitaţii Vânt Presiune Umiditate
    00:00 +7°C° 0.1 mm 1 m/s 754 mmHg 96%
    01:00 +7°C° 0.1 mm 1 m/s 755 mmHg 96%
    02:00 +7°C° 0.1 mm 1 m/s 755 mmHg 96%
    03:00 +6°C° 0.1 mm 1 m/s 756 mmHg 96%
    04:00 +6°C° 0 mm 1 m/s 756 mmHg 96%
    05:00 +6°C° 0 mm 1 m/s 757 mmHg 96%
    06:00 +5°C° 0 mm 2 m/s 757 mmHg 96%
    07:00 +4°C° 0.1 mm 3 m/s 758 mmHg 94%
    08:00 +4°C° 0.1 mm 4 m/s 759 mmHg 93%
    09:00 +4°C° 0.1 mm 6 m/s 760 mmHg 91%
    10:00 +4°C° 0.1 mm 6 m/s 760 mmHg 87%
    11:00 +4°C° 0.1 mm 7 m/s 761 mmHg 84%
    12:00 +4°C° 0.1 mm 7 m/s 762 mmHg 80%
    13:00 +4°C° 0 mm 7 m/s 762 mmHg 78%
    14:00 +3°C° 0 mm 6 m/s 763 mmHg 77%
    15:00 +3°C° 0 mm 6 m/s 763 mmHg 75%
    16:00 +2°C° 0 mm 5 m/s 764 mmHg 76%
    17:00 +3°C° 0 mm 4 m/s 765 mmHg 77%
    18:00 +2°C° 0 mm 3 m/s 765 mmHg 78%
    19:00 +1°C° 0 mm 3 m/s 766 mmHg 81%
    20:00 +1°C° 0 mm 3 m/s 766 mmHg 84%
    21:00 +1°C° 0 mm 3 m/s 767 mmHg 86%
    22:00 0°C° 0 mm 3 m/s 767 mmHg 87%
    23:00 0°C° 0 mm 3 m/s 767 mmHg 88%

    21 Ianuarie, Luni

    Timp Temperatura Precipitaţii Vânt Presiune Umiditate
    00:00 +1°C° 0 mm 2 m/s 767 mmHg 89%
    01:00 +1°C° 0 mm 2 m/s 767 mmHg 88%
    02:00 +1°C° 0 mm 2 m/s 767 mmHg 87%
    03:00 0°C° 0 mm 3 m/s 766 mmHg 87%
    04:00 0°C° 0 mm 3 m/s 766 mmHg 86%
    05:00 -1°C° 0 mm 4 m/s 766 mmHg 85%
    06:00 -1°C° 0 mm 4 m/s 765 mmHg 84%
    07:00 0°C° 0 mm 5 m/s 765 mmHg 83%
    08:00 0°C° 0 mm 5 m/s 764 mmHg 83%
    09:00 -1°C° 0 mm 6 m/s 763 mmHg 82%
    10:00 0°C° 0 mm 7 m/s 762 mmHg 81%
    11:00 +1°C° 0 mm 8 m/s 761 mmHg 80%
    12:00 +2°C° 0 mm 8 m/s 760 mmHg 79%
    13:00 +2°C° 0.2 mm 9 m/s 758 mmHg 81%
    14:00 +3°C° 0.2 mm 10 m/s 756 mmHg 82%
    15:00 +3°C° 0.2 mm 10 m/s 754 mmHg 83%
    16:00 +3°C° 0.9 mm 10 m/s 753 mmHg 84%
    17:00 +3°C° 0.9 mm 9 m/s 752 mmHg 86%
    18:00 +4°C° 0.9 mm 8 m/s 751 mmHg 88%
    19:00 +2°C° 0.2 mm 8 m/s 751 mmHg 84%
    20:00 0°C° 0.2 mm 7 m/s 751 mmHg 81%
    21:00 -1°C° 0.2 mm 7 m/s 751 mmHg 78%
    22:00 -1°C° 0.2 mm 7 m/s 750 mmHg 78%
    23:00 -1°C° 0.2 mm 6 m/s 750 mmHg 78%

    22 Ianuarie, Marţi

    Timp Temperatura Precipitaţii Vânt Presiune Umiditate
    00:00 -1°C° 0.2 mm 6 m/s 749 mmHg 78%
    01:00 -1°C° 0.1 mm 7 m/s 749 mmHg 78%
    02:00 -1°C° 0.1 mm 7 m/s 748 mmHg 79%
    03:00 -1°C° 0.1 mm 8 m/s 747 mmHg 80%
    04:00 -1°C° 0 mm 8 m/s 747 mmHg 79%
    05:00 -2°C° 0 mm 8 m/s 747 mmHg 78%
    06:00 -2°C° 0 mm 8 m/s 747 mmHg 77%
    07:00 -2°C° 0 mm 8 m/s 747 mmHg 76%
    08:00 -2°C° 0 mm 7 m/s 747 mmHg 75%
    09:00 -2°C° 0 mm 7 m/s 747 mmHg 74%
    10:00 -2°C° 0 mm 7 m/s 747 mmHg 72%
    11:00 -1°C° 0 mm 8 m/s 747 mmHg 70%
    12:00 0°C° 0 mm 8 m/s 747 mmHg 68%
    13:00 0°C° 0.1 mm 8 m/s 747 mmHg 69%
    14:00 0°C° 0.1 mm 8 m/s 746 mmHg 70%
    15:00 0°C° 0.1 mm 7 m/s 746 mmHg 71%
    16:00 -1°C° 0 mm 7 m/s 746 mmHg 73%
    17:00 -1°C° 0 mm 6 m/s 746 mmHg 75%
    18:00 -2°C° 0 mm 6 m/s 746 mmHg 76%
    19:00 -2°C° 0 mm 6 m/s 746 mmHg 77%
    20:00 -2°C° 0 mm 6 m/s 746 mmHg 77%
    21:00 -2°C° 0 mm 6 m/s 745 mmHg 77%
    22:00 -2°C° 0 mm 6 m/s 745 mmHg 78%
    23:00 -2°C° 0 mm 6 m/s 745 mmHg 78%

    23 Ianuarie, Miercuri

    Timp Temperatura Precipitaţii Vânt Presiune Umiditate
    00:00 -2°C° 0 mm 6 m/s 745 mmHg 78%
    01:00 -1°C° 0.1 mm 6 m/s 744 mmHg 78%
    02:00 -1°C° 0.1 mm 7 m/s 744 mmHg 78%
    03:00 -1°C° 0.1 mm 7 m/s 744 mmHg 78%
    04:00 0°C° 0.2 mm 7 m/s 743 mmHg 77%
    05:00 0°C° 0.2 mm 8 m/s 743 mmHg 76%
    06:00 0°C° 0.2 mm 9 m/s 743 mmHg 76%
    07:00 0°C° 0.1 mm 9 m/s 743 mmHg 75%
    08:00 0°C° 0.1 mm 9 m/s 743 mmHg 75%
    09:00 0°C° 0.1 mm 9 m/s 743 mmHg 74%
    10:00 +1°C° 0.1 mm 9 m/s 744 mmHg 73%
    11:00 +1°C° 0.1 mm 9 m/s 745 mmHg 72%
    12:00 +1°C° 0.1 mm 8 m/s 746 mmHg 70%
    13:00 +1°C° 0 mm 8 m/s 747 mmHg 71%
    14:00 +2°C° 0 mm 7 m/s 748 mmHg 71%
    15:00 +2°C° 0 mm 6 m/s 749 mmHg 71%
    16:00 +2°C° 0 mm 7 m/s 749 mmHg 74%
    17:00 +2°C° 0 mm 8 m/s 750 mmHg 77%
    18:00 +2°C° 0 mm 9 m/s 750 mmHg 80%
    19:00 +2°C° 0 mm 8 m/s 751 mmHg 81%
    20:00 +2°C° 0 mm 8 m/s 751 mmHg 82%
    21:00 +3°C° 0 mm 7 m/s 752 mmHg 82%
    22:00 +2°C° 0 mm 7 m/s 753 mmHg 82%
    23:00 +2°C° 0 mm 7 m/s 753 mmHg 81%
    Arată mai mult